• In Hungary
  • List of Countries
  • For 7 days
  • Water Temperature
  • Satellite Maps
  • Weather Map
  • News
  • Weather Widgets
  • user-avatar
    Login

    Hourly Weather Umea

    Today, 21 February, Wednesday

    Time Temperature Precipitation Wind Pressure Humidity
    00:00 -14°C° 0 mm 1 mps 770 mmHg 96%
    01:00 -14°C° 0 mm 1 mps 770 mmHg 96%
    02:00 -14°C° 0 mm 1 mps 770 mmHg 96%
    03:00 -15°C° 0 mm 1 mps 770 mmHg 96%
    04:00 -15°C° 0 mm 1 mps 770 mmHg 96%
    05:00 -15°C° 0 mm 1 mps 770 mmHg 96%
    06:00 -16°C° 0 mm 1 mps 770 mmHg 96%
    07:00 -18°C° 0 mm 2 mps 770 mmHg 95%
    08:00 -15°C° 0 mm 1 mps 770 mmHg 93%
    09:00 -14°C° 0 mm 1 mps 770 mmHg 92%
    10:00 -13°C° 0 mm 1 mps 770 mmHg 90%
    11:00 -12°C° 0 mm 1 mps 770 mmHg 89%
    12:00 -10°C° 0 mm 1 mps 770 mmHg 87%
    13:00 -9°C° 0 mm 0 mps 770 mmHg 86%
    14:00 -10°C° 0 mm 1 mps 770 mmHg 88%
    15:00 -11°C° 0 mm 1 mps 770 mmHg 91%
    16:00 -12°C° 0 mm 1 mps 770 mmHg 94%
    17:00 -13°C° 0 mm 1 mps 770 mmHg 94%
    18:00 -14°C° 0 mm 1 mps 770 mmHg 95%
    19:00 -14°C° 0 mm 1 mps 770 mmHg 96%
    20:00 -15°C° 0 mm 1 mps 770 mmHg 96%
    21:00 -15°C° 0 mm 1 mps 770 mmHg 95%
    22:00 -15°C° 0 mm 1 mps 770 mmHg 95%
    23:00 -15°C° 0 mm 1 mps 770 mmHg 95%

    Tomorrow, 22 February, Thursday

    Time Temperature Precipitation Wind Pressure Humidity
    00:00 -15°C° 0 mm 1 mps 770 mmHg 95%
    01:00 -15°C° 0 mm 1 mps 770 mmHg 96%
    02:00 -14°C° 0 mm 1 mps 770 mmHg 96%
    03:00 -14°C° 0 mm 1 mps 770 mmHg 96%
    04:00 -14°C° 0 mm 1 mps 770 mmHg 96%
    05:00 -14°C° 0 mm 1 mps 770 mmHg 96%
    06:00 -14°C° 0 mm 1 mps 770 mmHg 95%
    07:00 -13°C° 0 mm 1 mps 769 mmHg 95%
    08:00 -12°C° 0 mm 1 mps 770 mmHg 94%
    09:00 -11°C° 0 mm 1 mps 770 mmHg 92%
    10:00 -10°C° 0 mm 1 mps 770 mmHg 91%
    11:00 -9°C° 0 mm 1 mps 770 mmHg 89%
    12:00 -8°C° 0 mm 1 mps 770 mmHg 88%
    13:00 -8°C° 0 mm 1 mps 769 mmHg 87%
    14:00 -8°C° 0 mm 1 mps 769 mmHg 89%
    15:00 -9°C° 0 mm 1 mps 769 mmHg 90%
    16:00 -10°C° 0 mm 1 mps 769 mmHg 92%
    17:00 -13°C° 0 mm 2 mps 769 mmHg 91%
    18:00 -14°C° 0 mm 2 mps 769 mmHg 91%
    19:00 -16°C° 0 mm 2 mps 769 mmHg 90%
    20:00 -16°C° 0 mm 2 mps 769 mmHg 90%
    21:00 -17°C° 0 mm 2 mps 769 mmHg 90%
    22:00 -17°C° 0 mm 2 mps 769 mmHg 90%
    23:00 -17°C° 0 mm 2 mps 769 mmHg 90%

    Day after tomorrow, 23 February, Friday

    Time Temperature Precipitation Wind Pressure Humidity
    00:00 -17°C° 0 mm 2 mps 769 mmHg 90%
    01:00 -17°C° 0 mm 2 mps 769 mmHg 90%
    02:00 -17°C° 0 mm 2 mps 769 mmHg 91%
    03:00 -17°C° 0 mm 2 mps 769 mmHg 91%
    04:00 -17°C° 0 mm 2 mps 770 mmHg 91%
    05:00 -18°C° 0 mm 3 mps 770 mmHg 92%
    06:00 -18°C° 0 mm 3 mps 770 mmHg 93%
    07:00 -18°C° 0 mm 3 mps 771 mmHg 94%
    08:00 -17°C° 0 mm 3 mps 771 mmHg 93%
    09:00 -15°C° 0 mm 3 mps 772 mmHg 92%
    10:00 -14°C° 0 mm 3 mps 772 mmHg 90%
    11:00 -15°C° 0 mm 4 mps 772 mmHg 89%
    12:00 -14°C° 0 mm 4 mps 773 mmHg 87%
    13:00 -12°C° 0 mm 4 mps 773 mmHg 85%
    14:00 -14°C° 0 mm 4 mps 773 mmHg 87%
    15:00 -14°C° 0 mm 4 mps 774 mmHg 88%
    16:00 -14°C° 0 mm 3 mps 774 mmHg 89%
    17:00 -15°C° 0 mm 3 mps 775 mmHg 91%
    18:00 -17°C° 0 mm 3 mps 775 mmHg 94%
    19:00 -18°C° 0 mm 3 mps 776 mmHg 96%
    20:00 -19°C° 0 mm 3 mps 776 mmHg 96%
    21:00 -21°C° 0 mm 3 mps 777 mmHg 97%
    22:00 -19°C° 0 mm 2 mps 777 mmHg 98%
    23:00 -19°C° 0 mm 2 mps 778 mmHg 98%

    24 February, Saturday

    Time Temperature Precipitation Wind Pressure Humidity
    00:00 -20°C° 0 mm 2 mps 778 mmHg 97%
    01:00 -20°C° 0 mm 2 mps 779 mmHg 97%
    02:00 -20°C° 0 mm 2 mps 779 mmHg 97%
    03:00 -20°C° 0 mm 2 mps 779 mmHg 97%
    04:00 -20°C° 0 mm 2 mps 780 mmHg 97%
    05:00 -20°C° 0 mm 2 mps 780 mmHg 97%
    06:00 -20°C° 0 mm 2 mps 780 mmHg 96%
    07:00 -20°C° 0 mm 2 mps 781 mmHg 96%
    08:00 -19°C° 0 mm 2 mps 781 mmHg 94%
    09:00 -18°C° 0 mm 2 mps 781 mmHg 92%
    10:00 -16°C° 0 mm 2 mps 782 mmHg 90%
    11:00 -15°C° 0 mm 2 mps 782 mmHg 88%
    12:00 -14°C° 0 mm 2 mps 782 mmHg 87%
    13:00 -13°C° 0 mm 2 mps 782 mmHg 86%
    14:00 -14°C° 0 mm 2 mps 782 mmHg 89%
    15:00 -15°C° 0 mm 2 mps 782 mmHg 92%
    16:00 -15°C° 0 mm 2 mps 782 mmHg 94%
    17:00 -16°C° 0 mm 2 mps 782 mmHg 95%
    18:00 -17°C° 0 mm 2 mps 782 mmHg 96%
    19:00 -18°C° 0 mm 2 mps 782 mmHg 97%
    20:00 -19°C° 0 mm 2 mps 782 mmHg 97%
    21:00 -20°C° 0 mm 2 mps 783 mmHg 97%
    22:00 -20°C° 0 mm 2 mps 783 mmHg 97%
    23:00 -20°C° 0 mm 2 mps 783 mmHg 97%

    25 February, Sunday

    Time Temperature Precipitation Wind Pressure Humidity
    00:00 -21°C° 0 mm 2 mps 783 mmHg 97%
    01:00 -23°C° 0 mm 3 mps 783 mmHg 97%
    02:00 -23°C° 0 mm 3 mps 783 mmHg 96%
    03:00 -24°C° 0 mm 3 mps 783 mmHg 96%
    04:00 -24°C° 0 mm 3 mps 783 mmHg 95%
    05:00 -24°C° 0 mm 3 mps 783 mmHg 95%
    06:00 -24°C° 0 mm 3 mps 783 mmHg 94%
    07:00 -24°C° 0 mm 3 mps 783 mmHg 94%
    08:00 -23°C° 0 mm 3 mps 783 mmHg 92%
    09:00 -21°C° 0 mm 3 mps 784 mmHg 90%
    10:00 -19°C° 0 mm 3 mps 784 mmHg 87%
    11:00 -18°C° 0 mm 3 mps 783 mmHg 86%
    12:00 -17°C° 0 mm 3 mps 783 mmHg 85%
    13:00 -15°C° 0 mm 3 mps 783 mmHg 84%
    14:00 -16°C° 0 mm 3 mps 782 mmHg 86%
    15:00 -16°C° 0 mm 3 mps 782 mmHg 88%
    16:00 -16°C° 0 mm 3 mps 782 mmHg 90%
    17:00 -17°C° 0 mm 3 mps 782 mmHg 91%
    18:00 -19°C° 0 mm 4 mps 782 mmHg 91%
    19:00 -19°C° 0 mm 4 mps 781 mmHg 91%
    20:00 -19°C° 0 mm 4 mps 781 mmHg 91%
    21:00 -19°C° 0 mm 4 mps 781 mmHg 91%
    22:00 -19°C° 0 mm 4 mps 781 mmHg 90%
    23:00 -19°C° 0 mm 4 mps 781 mmHg 91%

    26 February, Monday

    Time Temperature Precipitation Wind Pressure Humidity
    00:00 -19°C° 0 mm 4 mps 780 mmHg 91%
    01:00 -19°C° 0 mm 4 mps 780 mmHg 91%
    02:00 -18°C° 0 mm 4 mps 780 mmHg 92%
    03:00 -18°C° 0 mm 4 mps 780 mmHg 92%
    04:00 -17°C° 0 mm 4 mps 779 mmHg 92%
    05:00 -17°C° 0 mm 4 mps 779 mmHg 92%
    06:00 -17°C° 0 mm 4 mps 779 mmHg 93%
    07:00 -17°C° 0 mm 4 mps 779 mmHg 93%
    08:00 -17°C° 0 mm 5 mps 778 mmHg 92%
    09:00 -15°C° 0 mm 5 mps 778 mmHg 91%
    10:00 -14°C° 0 mm 5 mps 778 mmHg 90%
    11:00 -14°C° 0 mm 5 mps 778 mmHg 88%
    12:00 -13°C° 0 mm 5 mps 777 mmHg 87%
    13:00 -12°C° 0 mm 5 mps 777 mmHg 86%
    14:00 -12°C° 0 mm 5 mps 777 mmHg 87%
    15:00 -12°C° 0 mm 5 mps 776 mmHg 88%
    16:00 -13°C° 0 mm 5 mps 776 mmHg 88%
    17:00 -13°C° 0.1 mm 5 mps 776 mmHg 90%
    18:00 -13°C° 0.1 mm 5 mps 776 mmHg 91%
    19:00 -14°C° 0.1 mm 5 mps 776 mmHg 92%
    20:00 -14°C° 0.1 mm 5 mps 776 mmHg 91%
    21:00 -14°C° 0.1 mm 5 mps 776 mmHg 91%
    22:00 -14°C° 0.1 mm 5 mps 776 mmHg 91%
    23:00 -15°C° 0 mm 5 mps 776 mmHg 91%
    Show more